Weather History for Grass Valley, CA

Change the Weather History Date:

Saturday, November 16, 2013

  Actual Average (KBLU) Record (KBLU)
Temperature  
Mean Temperature 50 °F -  
Max Temperature 55 °F 48 °F 75 °F (2008)
Min Temperature 44 °F 35 °F 15 °F (1958)
Degree Days  
Heating Degree Days 16    
Moisture  
Dew Point 30 °F    
Average Humidity 49    
Maximum Humidity 61    
Minimum Humidity 33    
Precipitation  
Precipitation 0.00 in - - ()
Sea Level Pressure  
Sea Level Pressure 29.83 in    
Wind  
Wind Speed 3 mph (SE)    
Max Wind Speed 6 mph    
Max Gust Speed -    
Visibility 10 miles    
Events      
Averages and records for this station are not official NWS values.
T = Trace of Precipitation, MM = Missing Value Source: NWS Daily Summary

Daily Weather History Graph

Daily Weather History Graph

Search for Another Location

Airport:

Trip Planner

Search our weather history database for the weather conditions in past years. The results will help you decide how hot, cold, wet, or windy it might be!

Date:

Astronomy

Nov. 16, 2013 Rise Set
Actual Time 6:48 AM PST 4:48 PM PST
Civil Twilight 6:20 AM PST 5:17 PM PST
Nautical Twilight 5:47 AM PST 5:49 PM PST
Astronomical Twilight 5:15 AM PST 6:21 PM PST
Moon 4:26 PM PST (11/16) 5:50 AM PST (11/16)
Length of Visible Light 10h 57m
Length of Day
9h 59m
Waxing Gibbous, 99% of the Moon is Illuminated
Nov 16
Waxing Gibbous
Nov 17
Full
Nov 25
Last Quarter
Dec 2
New
Dec 9
First Quarter

Hourly Weather History & Observations

Time (PST) Temp. Windchill Dew Point Humidity Pressure Visibility Wind Dir Wind Speed Gust Speed Precip Events Conditions
12:00 AM 46.4 °F 44.3 °F 28.4 °F 50% 29.78 in 10.0 mi SE 4.6 mph - N/A   Clear
12:20 AM 46.4 °F 44.3 °F 28.4 °F 50% 29.78 in 10.0 mi SE 4.6 mph - N/A   Clear
12:40 AM 46.4 °F - 28.4 °F 50% 29.77 in 10.0 mi Calm Calm - N/A   Clear
1:00 AM 46.4 °F 44.3 °F 28.4 °F 50% 29.77 in 10.0 mi SE 4.6 mph - N/A   Clear
1:20 AM 46.4 °F - 28.4 °F 50% 29.77 in 10.0 mi Calm Calm - N/A   Clear
1:40 AM 46.4 °F - 28.4 °F 50% 29.77 in 10.0 mi Calm Calm - N/A   Clear
2:00 AM 46.4 °F - 28.4 °F 50% 29.78 in 10.0 mi Calm Calm - N/A   Clear
2:20 AM 46.4 °F 44.3 °F 28.4 °F 50% 29.78 in 10.0 mi ESE 4.6 mph - N/A   Clear
2:40 AM 46.4 °F - 28.4 °F 50% 29.78 in 10.0 mi Calm Calm - N/A   Clear
3:00 AM 46.4 °F 44.3 °F 28.4 °F 50% 29.77 in 10.0 mi ESE 4.6 mph - N/A   Scattered Clouds
3:20 AM 44.6 °F 42.2 °F 28.4 °F 53% 29.77 in 10.0 mi SE 4.6 mph - N/A   Overcast
3:40 AM 46.4 °F 45.2 °F 28.4 °F 50% 29.76 in 10.0 mi ESE 3.5 mph - N/A   Overcast
4:00 AM 46.4 °F 44.3 °F 28.4 °F 50% 29.76 in 10.0 mi ESE 4.6 mph - N/A   Mostly Cloudy
4:20 AM 46.4 °F 43.5 °F 26.6 °F 46% 29.76 in 10.0 mi ESE 5.8 mph - N/A   Mostly Cloudy
4:40 AM 46.4 °F 44.3 °F 26.6 °F 46% 29.77 in 10.0 mi ESE 4.6 mph - N/A   Overcast
5:00 AM 46.4 °F 43.5 °F 26.6 °F 46% 29.78 in 10.0 mi ESE 5.8 mph - N/A   Overcast
5:20 AM 46.4 °F 45.2 °F 28.4 °F 50% 29.77 in 10.0 mi SE 3.5 mph - N/A   Overcast
5:40 AM 46.4 °F 45.2 °F 28.4 °F 50% 29.77 in 10.0 mi ESE 3.5 mph - N/A   Overcast
6:00 AM 46.4 °F 44.3 °F 28.4 °F 50% 29.77 in 10.0 mi SE 4.6 mph - N/A   Mostly Cloudy
6:20 AM 46.4 °F 44.3 °F 28.4 °F 50% 29.79 in 10.0 mi East 4.6 mph - N/A   Mostly Cloudy
6:40 AM 46.4 °F - 28.4 °F 50% 29.79 in 10.0 mi Calm Calm - N/A   Overcast
7:00 AM 46.4 °F - 28.4 °F 50% 29.78 in 10.0 mi Calm Calm - N/A   Overcast
7:20 AM 46.4 °F - 28.4 °F 50% 29.80 in 10.0 mi Calm Calm - N/A   Overcast
7:40 AM 46.4 °F - 30.2 °F 53% 29.80 in 10.0 mi Calm Calm - N/A   Mostly Cloudy
7:55 AM 46.4 °F 43.5 °F 30.2 °F 53% 29.80 in 10.0 mi SE 5.8 mph - N/A   Mostly Cloudy
8:20 AM 46.4 °F 43.5 °F 32.0 °F 57% 29.81 in 10.0 mi SSE 5.8 mph - N/A   Mostly Cloudy
8:40 AM 48.2 °F - 32.0 °F 54% 29.82 in 10.0 mi SE 4.6 mph - N/A   Partly Cloudy
9:00 AM 50.0 °F - 32.0 °F 50% 29.82 in 10.0 mi Calm Calm - N/A   Partly Cloudy
9:20 AM 50.0 °F - 32.0 °F 50% 29.82 in 10.0 mi SE 3.5 mph - N/A   Clear
9:40 AM 50.0 °F - 32.0 °F 50% 29.83 in 10.0 mi SSE 5.8 mph - N/A   Clear
10:00 AM 50.0 °F - 32.0 °F 50% 29.83 in 10.0 mi Calm Calm - N/A   Clear
10:20 AM 51.8 °F - 32.0 °F 47% 29.84 in 10.0 mi SSW 4.6 mph - N/A   Clear
10:40 AM 51.8 °F - 32.0 °F 47% 29.84 in 10.0 mi South 4.6 mph - N/A   Clear
11:00 AM 51.8 °F - 32.0 °F 47% 29.84 in 10.0 mi SSW 3.5 mph - N/A   Clear
11:20 AM 51.8 °F - 32.0 °F 47% 29.84 in 10.0 mi East 3.5 mph - N/A   Clear
11:40 AM 53.6 °F - 28.4 °F 38% 29.84 in 9.0 mi SSW 5.8 mph - N/A   Clear
12:00 PM 53.6 °F - 28.4 °F 38% 29.84 in 10.0 mi SSE 3.5 mph - N/A   Clear
12:20 PM 53.6 °F - 26.6 °F 35% 29.84 in 10.0 mi South 3.5 mph - N/A   Clear
12:40 PM 53.6 °F - 26.6 °F 35% 29.83 in 10.0 mi SSW 5.8 mph - N/A   Clear
1:00 PM 55.4 °F - 28.4 °F 36% 29.83 in 10.0 mi SW 3.5 mph - N/A   Clear
1:20 PM 55.4 °F - 26.6 °F 33% 29.83 in 10.0 mi Calm Calm - N/A   Clear
1:40 PM 55.4 °F - 28.4 °F 36% 29.83 in 10.0 mi SSE 3.5 mph - N/A   Clear
2:00 PM 55.4 °F - 26.6 °F 33% 29.82 in 10.0 mi WSW 4.6 mph - N/A   Clear
2:20 PM 55.4 °F - 28.4 °F 36% 29.82 in 9.0 mi Calm Calm - N/A   Clear
2:40 PM 55.4 °F - 28.4 °F 36% 29.82 in 10.0 mi WSW 3.5 mph - N/A   Clear
3:00 PM 55.4 °F - 28.4 °F 36% 29.83 in 10.0 mi Calm Calm - N/A   Clear
3:20 PM 55.4 °F - 30.2 °F 38% 29.84 in 10.0 mi South 3.5 mph - N/A   Clear
3:40 PM 53.6 °F - 28.4 °F 38% 29.84 in 10.0 mi Calm Calm - N/A   Clear
4:00 PM 53.6 °F - 30.2 °F 41% 29.84 in 10.0 mi Calm Calm - N/A   Clear
4:20 PM 51.8 °F - 28.4 °F 41% 29.84 in 10.0 mi Calm Calm - N/A   Clear
4:40 PM 50.0 °F - 30.2 °F 47% 29.84 in 10.0 mi Calm Calm - N/A   Clear
5:00 PM 48.2 °F - 32.0 °F 54% 29.85 in 10.0 mi Calm Calm - N/A   Clear
5:20 PM 48.2 °F - 32.0 °F 54% 29.86 in 10.0 mi Calm Calm - N/A   Clear
5:40 PM 48.2 °F - 32.0 °F 54% 29.86 in 10.0 mi Calm Calm - N/A   Clear
6:00 PM 46.4 °F - 32.0 °F 57% 29.87 in 10.0 mi Calm Calm - N/A   Clear
6:20 PM 46.4 °F - 32.0 °F 57% 29.87 in 10.0 mi Calm Calm - N/A   Clear
6:40 PM 46.4 °F - 32.0 °F 57% 29.88 in 10.0 mi Calm Calm - N/A   Clear
7:00 PM 46.4 °F - 32.0 °F 57% 29.89 in 10.0 mi Calm Calm - N/A   Clear
7:20 PM 46.4 °F - 32.0 °F 57% 29.89 in 10.0 mi Calm Calm - N/A   Clear
7:40 PM 46.4 °F 45.2 °F 32.0 °F 57% 29.89 in 10.0 mi ESE 3.5 mph - N/A   Clear
8:00 PM 46.4 °F - 32.0 °F 57% 29.90 in 10.0 mi Calm Calm - N/A   Clear
8:20 PM 46.4 °F 45.2 °F 32.0 °F 57% 29.90 in 10.0 mi ESE 3.5 mph - N/A   Clear
8:40 PM 46.4 °F - 32.0 °F 57% 29.90 in 10.0 mi Calm Calm - N/A   Clear
9:00 PM 46.4 °F - 32.0 °F 57% 29.91 in 10.0 mi Calm Calm - N/A   Clear
9:20 PM 46.4 °F 43.5 °F 32.0 °F 57% 29.92 in 10.0 mi East 5.8 mph - N/A   Clear
9:40 PM 44.6 °F 43.1 °F 32.0 °F 61% 29.92 in 10.0 mi East 3.5 mph - N/A   Clear
10:00 PM 44.6 °F - 32.0 °F 61% 29.91 in 10.0 mi Calm Calm - N/A   Clear
10:20 PM 46.4 °F - 32.0 °F 57% 29.92 in 10.0 mi Calm Calm - N/A   Clear
10:40 PM 44.6 °F - 32.0 °F 61% 29.93 in 10.0 mi Calm Calm - N/A   Clear
11:00 PM 46.4 °F - 32.0 °F 57% 29.93 in 10.0 mi Calm Calm - N/A   Clear
11:20 PM 46.4 °F - 32.0 °F 57% 29.93 in 10.0 mi Calm Calm - N/A   Clear
11:40 PM 46.4 °F - 32.0 °F 57% 29.93 in 10.0 mi Calm Calm - N/A   Clear